Miscellaneous Local Product
Issued by NWS North Platte, NE

Home | Current Version | Previous Version | Graphics & Text | Print | Product List | Glossary On
Versions: 1 2 3 4 5 6 7 8 9 10 11 12 13 14 15 16 17 18 19 20 21 22 23 24 25 26 27 28 29 30 31 32 33 34 35 36 37 38 39 40 41 42 43 44 45 46 47 48 49 50
000
AXUS43 KLBF 231410
MISLBF


WESTERN AND NORTH CENTRAL NEBRASKA HOURLY WEATHER ROUNDUP
NATIONAL WEATHER SERVICE NORTH PLATTE NE
900 AM CDT SAT SEP 23 2017

NOTE: "FAIR" INDICATES FEW OR NO CLOUDS BELOW 12,000 FEET WITH NO
SIGNIFICANT WEATHER AND/OR OBSTRUCTIONS TO VISIBILITY.

NOTE: STATIONS NOT REPORTING VARIABLES SUCH AS SKY/WEATHER OR
PRESSURE ARE PROVIDED BY RAWS AND APRS NETWORKS AND ARE NOT UNDER
NATIONAL WEATHER SERVICE QUALITY CONTROL.

...OBSERVATIONS IN AND NEAR THE EASTERN PANHANDLE OF NEBRASKA...

CITY           SKY/WX    TMP DP  RH WIND       PRES   REMARKS
PINE RIDGE     CLOUDY    45  43  93 NE16      30.02F
GORDON         CLOUDY    43  42  95 N10       30.02F FOG
CHADRON        CLOUDY    45  41  86 NE7       30.05R
ALLIANCE       CLOUDY    43  42  97 NE8       30.01R FOG
SIDNEY         CLOUDY    45  42  89 N12       30.01R FOG
CRESCENT LAKE    N/A     45  45 100 N8          N/A
$$

...OBSERVATIONS IN NORTHERN NEBRASKA AND FAR SOUTHERN SOUTH DAKOTA...

CITY           SKY/WX    TMP DP  RH WIND       PRES   REMARKS
WINNER         LGT RAIN  51  49  92 N6        30.02R
VALENTINE      TSTM      49  47  93 N12       30.00F FOG
THEDFORD       DRIZZLE   49  48  96 N7        30.00R
AINSWORTH      RAIN      48  48 100 N13       29.99S
O`NEILL        CLOUDY    54  53  99 NE6       29.98R
ORD            CLOUDY    57  52  83 NE6       29.93F
BROKEN BOW     CLOUDY    54  50  86 N9        29.95R
VALENTINE NWR    N/A     47  46  97 N6G15       N/A
HALSEY           N/A     48  48 100 N5          N/A
BUTTE            N/A     51  49  93 NW10        N/A
CHAMBERS         N/A     55  53  93 N3          N/A
EWING            N/A     55  53  92 NE3         N/A
$$

...OBSERVATIONS IN SOUTHWEST NEBRASKA AND FAR NORTHEAST COLORADO...

CITY           SKY/WX    TMP DP  RH WIND       PRES   REMARKS
WRAY           CLOUDY    50  50 100 N12       29.94F FOG
HOLYOKE        CLOUDY    52  45  76 N12       29.96S
IMPERIAL       CLOUDY    53  48  83 N13       29.93R
OGALLALA       CLOUDY    50  48  93 NE10      29.95F
NORTH PLATTE   CLOUDY    52  50  93 NE12      29.94S
MCCOOK         CLOUDY    72  66  81 E8        29.88R
LEXINGTON      CLOUDY    63  56  78 E7        29.92S
STAPLETON        N/A     48  47  96 NE3         N/A
GOTHENBURG       N/A     57  49  76 NE5         N/A
CALLAWAY         N/A     54  51  89 NE3         N/A
$$

...OBSERVATIONS IN CENTRAL LINCOLN COUNTY AREA...

CITY           SKY/WX    TMP DP  RH WIND       PRES   REMARKS
N.P. AIRPORT   CLOUDY    52  50  93 NE12      29.94S
N.P. DOWNTOWN    N/A     51  49  94 E5G12       N/A
N.P. SOUTHEAST   N/A     50  48  93 NE3         N/A
N.P. HILLCREST   N/A     50  49  95 NE16        N/A
$$

...SOME OBSERVATIONS FROM AROUND THE REGION...

CITY           SKY/WX    TMP DP  RH WIND       PRES   REMARKS
DENVER         CLOUDY    46  42  86 NE9       30.01R
LIMON            N/A    N/A N/A N/A MISG      29.96F
ASPEN          CLOUDY    47  38  71 NW3       29.95R
LARAMIE        CLOUDY    42  38  85 SE9       30.00F
CASPER         LGT RAIN  39  38  96 NE10      30.03F FOG     WCI  32
CHEYENNE       CLOUDY    41  36  82 N3        30.01S
SCOTTSBLUFF    CLOUDY    46  39  76 N7        30.01S
GRAND ISLAND   CLOUDY    69  68  96 E5        29.94S
OMAHA          PTSUNNY   76  67  73 SE12      29.97R
SIOUX FALLS    CLOUDY    63  61  93 NE6       29.96R
PIERRE         CLOUDY    50  47  89 N9        30.01F
RAPID CITY     CLOUDY    43  41  93 N14       30.07R
BISMARCK       CLOUDY    49  47  93 N7        30.11R
KANSAS CITY    MOSUNNY   77  70  79 S7        30.03R
HILL CITY      SUNNY     75  66  73 S9        29.89R
WICHITA        MOSUNNY   74  67  78 S10       29.97R
DODGE CITY     SUNNY     73  64  73 S15       29.93R
OKLAHOMA CITY  SUNNY     72  66  81 S9        29.99R
DALLAS         SUNNY     79  71  76 S5        29.94R
$$




USA.gov is the U.S. government's official web portal to all federal, state and local government web resources and services.